Regional Weather Roundup
Issued by NWS

Home | Current Version | Previous Version | Graphics & Text | Print | Product List | Glossary On
Versions: 1 2 3 4 5 6 7 8 9 10 11 12 13 14 15 16 17 18 19 20 21 22 23 24 25 26 27 28 29 30 31 32 33 34 35 36 37 38 39 40 41 42 43 44 45 46 47 48 49 50
000
ASUS45 KSLC 242110
RWRUT

UTAH REGIONAL WEATHER ROUNDUP
NATIONAL WEATHER SERVICE SALT LAKE CITY UT
200 PM MST SAT FEB 24 2018

UTZ001>011-023>025-242200-

NORTHERN UTAH

CITY           SKY/WX    TMP DP  RH WIND       PRES   REMARKS
BRIGHAM CITY   CLOUDY    28  10  45 S9        30.02F WCI  20
HILL AFB       CLOUDY    24  12  59 S16       29.98F WCI  11
LOGAN          CLOUDY    29  11  47 S9        29.98F WCI  20
OGDEN          CLOUDY    26  12  55 S16       29.99F WCI  14
SALT LAKE CITY CLOUDY    30  15  53 S18       30.00F WCI  18
WENDOVER       CLOUDY    33   9  36 E8        29.97F WCI  26
HEBER CITY       N/A     28   5  37 SW13      29.94F WCI  18
WEST JORDAN    CLOUDY    24  17  76 S24G30    30.00F WCI   8

$$

UTZ011>015-024>027-242200-

CENTRAL/NORTHEAST UTAH

CITY           SKY/WX    TMP DP  RH WIND       PRES   REMARKS
PROVO AIRPORT  CLOUDY    32  13  45 SE5       30.06F WCI  27
MOAB/CANYONLAN SUNNY     36  -1  21 W13G21    30.00F WCI  27
DELTA          CLOUDY    23  12  63 CALM      30.05F
PRICE          MOSUNNY   28   9  44 SE9       29.95F WCI  19
RICHFIELD      SUNNY     34   1  25 SW9       29.97F WCI  26
VERNAL         PTSUNNY   25  10  53 CALM      29.96F

$$

UTZ013>016-019>022-027-242200-

SOUTHERN UTAH

CITY           SKY/WX    TMP DP  RH WIND       PRES   REMARKS
BRYCE CANYON   SUNNY     26   3  37 S6        29.96F WCI  19
CEDAR CITY     SUNNY     30  18  60 SW14      30.01F WCI  19
MILFORD        CLOUDY    25  15  66 SW15      30.01F WCI  13
ST GEORGE      MOCLDY    41  15  35 CALM      30.16F
HANKSVILLE     SUNNY     37   3  23 SE5       30.03F WCI  34
KANAB          SUNNY     36  16  44 S12       30.12F WCI  27
BLANDING         N/A     32   8  37 S7        30.08F WCI  25

$$

REGIONAL REPORTS     COLORADO/ARIZONA

CITY           SKY/WX    TMP DP  RH WIND       PRES   REMARKS
CRAIG, CO      CLOUDY    21   5  50 W12       29.94F WCI   9
GRAND JUNCTION MOSUNNY   34   7  32 MISG      29.99F
RIFLE, CO      PTSUNNY   26   7  44 W10       29.99F WCI  16
MONTROSE, CO   MOSUNNY   30   4  33 CALM      30.00F
CORTEZ, CO     SUNNY     33  -3  21 NW14      30.02F WCI  23
COLORADO CITY    N/A     37   9  30 SW9       30.13F WCI  31
PAGE, AZ       SUNNY     37   6  27 NW3       30.07F
GRAND CANYON   SUNNY     27  11  51 SW13      30.07F WCI  16
KINGMAN, AZ    SUNNY     47  -2  13 W7        30.16F
FLAGSTAFF, AZ  SUNNY     29  19  66 S12       30.06F WCI  19

$$

REGIONAL REPORTS    NEVADA/IDAHO/WYOMING

CITY           SKY/WX    TMP DP  RH WIND       PRES   REMARKS
LAS VEGAS, NV  PTSUNNY   49   1  14 S9        30.15F
ELY, NY        CLOUDY    25  12  58 W9        29.99F WCI  15
ELKO, NV       LGT SNOW  24  20  84 W13       29.97F VSB 1   WCI  12
POCATELLO, ID  CLOUDY    28  17  63 S23       29.91F WCI  14
BURLEY, ID     CLOUDY    29  17  61 S20G28    29.89F WCI  16
FORT BRIDGER,  MOCLDY    19   9  65 SW18G25   29.88F WCI   3
EVANSTON, WY   CLOUDY    17   8  67 SW21      29.84F WCI   0
ROCK SPRINGS,  PTSUNNY   18   7  62 W20G28    29.85F WCI   2

$$



USA.gov is the U.S. government's official web portal to all federal, state and local government web resources and services.